Location: Black Swamp Observatory
(41.3920°N, 84.1250°W)
Time: 13:16:37
(UTC-04:00)

Vanguard 2 - Pass Details

Date: 25 January 2022
Orbit: 552 x 2935 km, 32.9° (Epoch: 24 May)

Event Time Altitude Azimuth Distance (km) Brightness Sun altitude
Exits shadow 04:46:56 17° 208° (SSW) 5,149 11.4 -35.0°
Drops below altitude 10° 04:52:46 10° 188° (S) 5,548 11.7 -34.0°
Sets 04:58:55 0° 172° (S) 6,273 12.2 -32.8°
